User: anonymous   Login
Location: Bavegemberg
(50.9500°N, 3.8833°E)
Time: 19:21:34
(UTC+00:00)
Language:

Cosmos 1346 Rocket - Orbit

View from above orbital plane
View from above orbital plane
View from above satellite
View from above satellite

Ground track
Ground track

The orbit data is extracted from the following two-line orbital elements,

1 13121U 82027B   24197.89014309  .00006075  00000-0  30169-3 0  9994
2 13121  81.1922  23.4747 0011017 144.6173 215.5790 15.17477054306937
Epoch (UTC): 15 July 2024 21:21:48
Eccentricity: 0.0011017
inclination: 81.1922°
perigee height: 506 km
apogee height: 521 km
right ascension of ascending node: 23.4747°
argument of perigee: 144.6173°
revolutions per day: 15.17477054
mean anomaly at epoch: 215.5790°
orbit number at epoch: 30693

The dashed part of the orbit path shows where the satellite is in the earth's shadow,  

DLR